User: anonymous   Login
Location: *
(48.4333°N, 5.0333°W)
Time: 09:58:23
(UTC+00:00)
Language:

Cosmos 1934 Rocket - Orbit

View from above orbital plane
View from above orbital plane
View from above satellite
View from above satellite

Ground track
Ground track

The orbit data is extracted from the following two-line orbital elements,

1 18986U 88023B   20184.86828475  .00000030  00000-0  14357-4 0  9993
2 18986  82.9552 296.5946 0041087 338.9384  21.0080 13.78651457623801
Epoch (UTC): 02 July 2020 20:50:19
Eccentricity: 0.0041087
inclination: 82.9552°
perigee height: 938 km
apogee height: 999 km
right ascension of ascending node: 296.5946°
argument of perigee: 338.9384°
revolutions per day: 13.78651457
mean anomaly at epoch: 21.0080°
orbit number at epoch: 62380

The dashed part of the orbit path shows where the satellite is in the earth's shadow,  

DLR